UAE77B OMDB-OIIE

Flight info

Callsign UAE77B
Flight time N/A
Altitude 36000
Route DAVMO M318 GABKO M317 RADEB M318 ASMUK/N0470F360 W32 ROVAD/N0437F280 G208 RADAL
Aircraft B77W/H-SDE1E2E3FGHIJ2J3J4J5M1RWXY/LB1D1

Departure

Time 2026-04-24 15:38
Airport Dubai International Airport (OMDB)

Arrival

Time N/A
Airport Imam Khomeini International Airport (OIIE)
Time Latitude Longitude Altitude Speed Heading
2026-04-24 15:02 25.24623 55.36366 26 ft 0 kts 31°
2026-04-24 15:18 25.24621 55.36364 26 ft 0 kts 31°
2026-04-24 15:18 25.24613 55.36359 30 ft 2 kts 31°
2026-04-24 15:18 25.24609 55.36356 29 ft 0 kts 31°
2026-04-24 15:19 25.24602 55.36352 32 ft 2 kts 31°
2026-04-24 15:19 25.24592 55.36346 32 ft 2 kts
2026-04-24 15:19 25.24579 55.36345 30 ft 2 kts
2026-04-24 15:20 25.24567 55.36344 32 ft 2 kts
2026-04-24 15:20 25.24554 55.36343 32 ft 2 kts 352°
2026-04-24 15:20 25.24543 55.36348 32 ft 2 kts 319°
2026-04-24 15:20 25.24534 55.36357 32 ft 2 kts 320°
2026-04-24 15:21 25.24528 55.36363 31 ft 0 kts 306°
2026-04-24 15:23 25.24533 55.36355 31 ft 4 kts 303°
2026-04-24 15:23 25.24561 55.36305 31 ft 12 kts 302°
2026-04-24 15:24 25.24801 55.35877 30 ft 31 kts 302°
2026-04-24 15:25 25.25077 55.35412 30 ft 40 kts 301°
2026-04-24 15:25 25.25346 55.34960 31 ft 20 kts 302°
2026-04-24 15:26 25.25614 55.34995 29 ft 0 kts 31°
2026-04-24 15:27 25.25632 55.35007 29 ft 1 kts 31°
2026-04-24 15:27 25.25743 55.35109 28 ft 8 kts 81°
2026-04-24 15:28 25.26007 55.35446 26 ft 22 kts 85°
2026-04-24 15:29 25.25877 55.35756 26 ft 23 kts 122°
2026-04-24 15:30 25.25628 55.36197 28 ft 23 kts 122°
2026-04-24 15:31 25.25299 55.36783 27 ft 14 kts 122°
2026-04-24 15:32 25.25131 55.37080 28 ft 11 kts 121°
2026-04-24 15:33 25.24938 55.37428 28 ft 17 kts 121°
2026-04-24 15:33 25.24723 55.37812 27 ft 21 kts 122°
2026-04-24 15:34 25.24674 55.37909 27 ft 0 kts 103°
2026-04-24 15:35 25.24676 55.37948 27 ft 5 kts 71°
2026-04-24 15:35 25.24698 55.37973 28 ft 2 kts 39°
2026-04-24 15:35 25.24719 55.37990 29 ft 6 kts 35°
2026-04-24 15:36 25.24768 55.38018 30 ft 10 kts 11°
2026-04-24 15:36 25.24830 55.37980 30 ft 1 kts 304°
2026-04-24 15:36 25.24834 55.37974 30 ft 1 kts 304°
2026-04-24 15:37 25.24858 55.37932 30 ft 22 kts 302°
2026-04-24 15:37 25.25089 55.37518 32 ft 104 kts 302°
2026-04-24 15:37 25.25618 55.36608 56 ft 171 kts 305°
2026-04-24 15:37 25.26301 55.35443 636 ft 185 kts 302°
2026-04-24 15:38 25.26945 55.34248 1535 ft 181 kts 303°
2026-04-24 15:38 25.27602 55.33041 2111 ft 197 kts 303°
2026-04-24 15:38 25.28364 55.31659 2478 ft 219 kts 302°
2026-04-24 15:38 25.29245 55.30244 3048 ft 229 kts 316°
2026-04-24 15:39 25.30695 55.29503 3767 ft 235 kts 353°
2026-04-24 15:39 25.32325 55.29509 4487 ft 241 kts 359°
2026-04-24 15:39 25.34019 55.29555 5285 ft 244 kts 358°
2026-04-24 15:39 25.35732 55.29603 6130 ft 246 kts 358°
2026-04-24 15:40 25.37451 55.29649 6778 ft 250 kts 358°
2026-04-24 15:40 25.39190 55.29695 7053 ft 254 kts 359°
2026-04-24 15:40 25.40974 55.30137 7064 ft 279 kts 20°
2026-04-24 15:40 25.42797 55.31048 7025 ft 290 kts 21°
2026-04-24 15:41 25.44632 55.31934 7044 ft 292 kts 20°
2026-04-24 15:41 25.46507 55.32819 7392 ft 293 kts 20°
2026-04-24 15:41 25.48330 55.33871 8177 ft 299 kts 31°
2026-04-24 15:41 25.50033 55.35232 9026 ft 303 kts 36°
2026-04-24 15:42 25.51715 55.36681 9899 ft 306 kts 36°
2026-04-24 15:42 25.53393 55.38132 10617 ft 315 kts 36°
2026-04-24 15:42 25.55207 55.39679 10889 ft 344 kts 35°
2026-04-24 15:42 25.57194 55.41352 11106 ft 372 kts 35°
2026-04-24 15:43 25.59312 55.43119 11703 ft 387 kts 35°
2026-04-24 15:43 25.61496 55.44932 12568 ft 395 kts 35°
2026-04-24 15:43 25.63687 55.46744 13525 ft 400 kts 35°
2026-04-24 15:43 25.65935 55.48600 14422 ft 403 kts 35°
2026-04-24 15:44 25.68203 55.50470 14919 ft 408 kts 35°
2026-04-24 15:44 25.70506 55.52368 15573 ft 413 kts 34°
2026-04-24 15:44 25.72818 55.54274 16573 ft 414 kts 34°
2026-04-24 15:44 25.73195 55.54585 16747 ft 414 kts 34°
2026-04-24 15:45 25.75514 55.56498 17762 ft 416 kts 34°
2026-04-24 15:45 25.77863 55.58437 18605 ft 421 kts 34°
2026-04-24 15:45 25.80220 55.60384 19239 ft 429 kts 34°
2026-04-24 15:45 25.82649 55.62390 19890 ft 437 kts 34°
2026-04-24 15:46 25.85109 55.64422 20589 ft 444 kts 34°
2026-04-24 15:46 25.87670 55.66386 21254 ft 449 kts 31°
2026-04-24 15:46 25.90289 55.68242 21926 ft 456 kts 30°
2026-04-24 15:46 25.92995 55.70129 22601 ft 462 kts 30°
2026-04-24 15:47 25.95743 55.72049 23248 ft 469 kts 30°
2026-04-24 15:47 25.98516 55.74007 23812 ft 475 kts 30°
2026-04-24 15:47 26.01315 55.75994 24401 ft 479 kts 30°
2026-04-24 15:47 26.04195 55.77872 24957 ft 478 kts 22°
2026-04-24 15:48 26.07334 55.79088 25542 ft 477 kts
2026-04-24 15:48 26.10565 55.79628 26171 ft 474 kts 359°
2026-04-24 15:48 26.13855 55.79513 26778 ft 472 kts 350°
2026-04-24 15:48 26.17156 55.79176 27314 ft 478 kts 353°
2026-04-24 15:49 26.20519 55.79191 27849 ft 486 kts 359°
2026-04-24 15:49 26.23862 55.79659 28385 ft 494 kts
2026-04-24 15:49 26.27269 55.80390 28928 ft 498 kts
2026-04-24 15:49 26.30686 55.81154 29438 ft 502 kts
2026-04-24 15:50 26.34127 55.81921 29913 ft 506 kts
2026-04-24 15:50 26.37594 55.82677 30322 ft 508 kts
2026-04-24 15:50 26.41033 55.83411 30842 ft 507 kts
2026-04-24 15:50 26.44485 55.84140 31597 ft 500 kts
2026-04-24 15:51 26.47909 55.84857 32277 ft 496 kts
2026-04-24 15:51 26.51270 55.85557 32819 ft 495 kts
2026-04-24 15:51 26.54663 55.86263 33327 ft 495 kts
2026-04-24 15:51 26.58048 55.86970 33855 ft 493 kts
2026-04-24 15:52 26.61424 55.87677 34338 ft 491 kts
2026-04-24 15:52 26.64780 55.88381 34860 ft 488 kts
2026-04-24 15:52 26.68065 55.89071 35360 ft 485 kts
2026-04-24 15:52 26.71386 55.89768 35807 ft 484 kts
2026-04-24 15:53 26.78060 55.91070 35855 ft 485 kts
2026-04-24 15:53 26.84733 55.91908 35844 ft 477 kts 360°
2026-04-24 15:54 26.91300 55.92661 35852 ft 477 kts 360°
2026-04-24 15:54 26.97924 55.93442 35859 ft 478 kts 360°
2026-04-24 15:55 27.04515 55.94242 35861 ft 479 kts 360°
2026-04-24 15:55 27.11174 55.95060 35858 ft 480 kts 360°
2026-04-24 15:56 27.17811 55.95876 35873 ft 481 kts 360°
2026-04-24 15:56 27.24493 55.96699 35876 ft 483 kts 360°
2026-04-24 15:57 27.31176 55.97521 35868 ft 483 kts 360°
2026-04-24 15:57 27.37838 55.98343 35901 ft 483 kts 360°
2026-04-24 15:58 27.44507 55.99166 35879 ft 484 kts 360°
2026-04-24 15:58 27.51218 55.99994 35923 ft 484 kts 359°
2026-04-24 15:59 27.57895 56.00819 35941 ft 484 kts 359°
2026-04-24 15:59 27.64610 56.01652 35943 ft 484 kts 359°
2026-04-24 16:00 27.71326 56.02483 36011 ft 489 kts 359°
2026-04-24 16:00 27.78137 56.03322 35995 ft 499 kts 360°
2026-04-24 16:01 27.85085 56.04188 35994 ft 501 kts 360°
2026-04-24 16:01 27.92008 56.05054 35997 ft 501 kts 360°
2026-04-24 16:02 27.98904 56.05915 36025 ft 500 kts 360°
2026-04-24 16:02 28.05830 56.06779 36008 ft 499 kts 359°
2026-04-24 16:03 28.12661 56.07553 36035 ft 489 kts 355°
2026-04-24 16:03 28.19385 56.07110 36021 ft 478 kts 345°
2026-04-24 16:04 28.24740 56.05737 36017 ft 472 kts 338°
2026-04-24 16:04 28.31060 56.03796 36025 ft 472 kts 338°
2026-04-24 16:05 28.40624 56.00888 36041 ft 474 kts 339°
2026-04-24 16:06 28.50180 55.98029 36064 ft 475 kts 339°
2026-04-24 16:07 28.59785 55.95156 36077 ft 477 kts 339°
2026-04-24 16:07 28.69414 55.92269 36101 ft 479 kts 338°
2026-04-24 16:08 28.79104 55.89357 36109 ft 480 kts 338°
2026-04-24 16:09 28.88769 55.86446 36109 ft 479 kts 338°
2026-04-24 16:09 28.95223 55.84485 36125 ft 479 kts 338°
2026-04-24 16:11 29.11315 55.79579 36114 ft 479 kts 338°
2026-04-24 16:11 29.17724 55.77620 36116 ft 478 kts 338°
2026-04-24 16:12 29.27338 55.74680 36113 ft 477 kts 338°
2026-04-24 16:13 29.36975 55.71727 36117 ft 477 kts 337°
2026-04-24 16:14 29.49799 55.67786 36097 ft 477 kts 337°
2026-04-24 16:14 29.59085 55.64129 36100 ft 464 kts 326°
2026-04-24 16:15 29.67753 55.59084 36110 ft 465 kts 326°
2026-04-24 16:16 29.76408 55.54095 36113 ft 465 kts 326°
2026-04-24 16:17 29.90909 55.45772 36074 ft 465 kts 326°
2026-04-24 16:18 30.02429 55.39136 36078 ft 463 kts 326°
2026-04-24 16:19 30.11078 55.34138 36069 ft 461 kts 326°
2026-04-24 16:20 30.19667 55.29159 36080 ft 461 kts 326°
2026-04-24 16:20 30.28238 55.24179 36063 ft 460 kts 326°
2026-04-24 16:21 30.36837 55.19177 36087 ft 460 kts 326°
2026-04-24 16:22 30.42534 55.15856 36056 ft 461 kts 326°
2026-04-24 16:22 30.51152 55.10825 36043 ft 461 kts 326°
2026-04-24 16:23 30.56883 55.07473 36039 ft 462 kts 325°
2026-04-24 16:24 30.65495 55.02427 36013 ft 463 kts 325°
2026-04-24 16:24 30.71268 54.99040 36011 ft 464 kts 325°
2026-04-24 16:25 30.77013 54.95666 36016 ft 464 kts 324°
2026-04-24 16:25 30.82760 54.92280 35982 ft 464 kts 324°
2026-04-24 16:26 30.91424 54.87162 35972 ft 464 kts 324°
2026-04-24 16:27 31.00034 54.82065 35981 ft 465 kts 325°
2026-04-24 16:27 31.05811 54.78641 35969 ft 464 kts 325°
2026-04-24 16:28 31.11541 54.75241 35967 ft 464 kts 325°
2026-04-24 16:28 31.20145 54.70124 35956 ft 463 kts 324°
2026-04-24 16:29 31.25898 54.66697 35963 ft 462 kts 324°
2026-04-24 16:30 31.37369 54.59847 35973 ft 463 kts 325°
2026-04-24 16:30 31.43086 54.56428 35959 ft 464 kts 325°
2026-04-24 16:31 31.48843 54.52979 35970 ft 464 kts 325°
2026-04-24 16:31 31.54610 54.49520 35981 ft 466 kts 325°
2026-04-24 16:32 31.60360 54.46066 35964 ft 466 kts 325°
2026-04-24 16:32 31.66149 54.42584 35971 ft 467 kts 325°
2026-04-24 16:33 31.71930 54.39105 35989 ft 466 kts 324°
2026-04-24 16:33 31.77679 54.35627 35969 ft 467 kts 324°
2026-04-24 16:34 31.83468 54.32133 35962 ft 467 kts 325°
2026-04-24 16:34 31.89351 54.28852 35947 ft 475 kts 331°
2026-04-24 16:35 31.95770 54.26661 35944 ft 484 kts 340°
2026-04-24 16:35 32.02335 54.25051 35941 ft 483 kts 340°
2026-04-24 16:36 32.08915 54.23427 35931 ft 482 kts 340°
2026-04-24 16:36 32.15475 54.21760 35939 ft 482 kts 340°
2026-04-24 16:37 32.22021 54.20081 35940 ft 483 kts 340°
2026-04-24 16:37 32.28611 54.18390 35932 ft 484 kts 340°
2026-04-24 16:38 32.35169 54.16707 35929 ft 486 kts 340°
2026-04-24 16:38 32.41701 54.15021 35848 ft 487 kts 341°
2026-04-24 16:39 32.48293 54.13294 35932 ft 484 kts 339°
2026-04-24 16:39 32.54879 54.11543 35950 ft 492 kts 339°
2026-04-24 16:40 32.61598 54.09771 35940 ft 494 kts 339°
2026-04-24 16:40 32.68330 54.07999 35937 ft 494 kts 339°
2026-04-24 16:41 32.75017 54.06233 35942 ft 494 kts 338°
2026-04-24 16:41 32.81727 54.04455 35940 ft 492 kts 338°
2026-04-24 16:42 32.88381 54.02705 35944 ft 491 kts 338°
2026-04-24 16:42 32.95085 54.01024 35953 ft 492 kts 339°
2026-04-24 16:43 33.01761 53.99356 35945 ft 493 kts 339°
2026-04-24 16:43 33.08490 53.97661 35958 ft 494 kts 339°
2026-04-24 16:44 33.15239 53.95954 35969 ft 496 kts 339°
2026-04-24 16:44 33.21987 53.94280 35980 ft 499 kts 340°
2026-04-24 16:45 33.28855 53.92828 35991 ft 501 kts 341°
2026-04-24 16:45 33.35703 53.91410 35987 ft 501 kts 340°
2026-04-24 16:46 33.42568 53.89940 35981 ft 500 kts 340°
2026-04-24 16:46 33.49344 53.88273 35976 ft 486 kts 332°
2026-04-24 16:47 33.52390 53.86751 36025 ft 472 kts 322°
2026-04-24 16:47 33.55187 53.84769 35993 ft 462 kts 315°
2026-04-24 16:47 33.57662 53.82386 35999 ft 451 kts 308°
2026-04-24 16:47 33.59971 53.79844 35980 ft 449 kts 307°
2026-04-24 16:48 33.64521 53.74775 35973 ft 447 kts 307°
2026-04-24 16:48 33.69104 53.69702 36020 ft 446 kts 307°
2026-04-24 16:49 33.73658 53.64701 35992 ft 445 kts 307°
2026-04-24 16:49 33.78242 53.59674 35982 ft 444 kts 307°
2026-04-24 16:50 33.82772 53.54702 35981 ft 443 kts 307°
2026-04-24 16:50 33.87332 53.49687 35983 ft 441 kts 307°
2026-04-24 16:51 33.91841 53.44721 35986 ft 440 kts 307°
2026-04-24 16:51 33.96352 53.39744 35974 ft 439 kts 307°
2026-04-24 16:52 34.00830 53.34795 35982 ft 439 kts 307°
2026-04-24 16:52 34.05335 53.29809 35970 ft 438 kts 307°
2026-04-24 16:53 34.09798 53.24862 35986 ft 438 kts 307°
2026-04-24 16:53 34.14308 53.19857 35999 ft 438 kts 307°
2026-04-24 16:54 34.18040 53.15708 35968 ft 439 kts 307°
2026-04-24 16:54 34.23270 53.09888 35967 ft 439 kts 307°
2026-04-24 16:55 34.27744 53.04900 35975 ft 438 kts 307°
2026-04-24 16:55 34.31465 53.00755 35976 ft 425 kts 307°
2026-04-24 16:56 34.33587 52.98401 35953 ft 411 kts 306°
2026-04-24 16:56 34.35660 52.96099 35793 ft 400 kts 306°
2026-04-24 16:56 34.37693 52.93827 35448 ft 393 kts 306°
2026-04-24 16:56 34.39699 52.91576 35007 ft 389 kts 306°
2026-04-24 16:57 34.41655 52.89374 34541 ft 386 kts 306°
2026-04-24 16:57 34.43624 52.87158 34057 ft 384 kts 306°
2026-04-24 16:57 34.45558 52.84980 33552 ft 382 kts 306°
2026-04-24 16:57 34.47505 52.82788 33037 ft 380 kts 307°
2026-04-24 16:58 34.49443 52.80607 32543 ft 377 kts 307°
2026-04-24 16:58 34.51365 52.78444 32081 ft 375 kts 308°
2026-04-24 16:58 34.53277 52.76292 31617 ft 373 kts 308°
2026-04-24 16:58 34.55147 52.74186 31158 ft 371 kts 309°
2026-04-24 16:59 34.57040 52.72051 30708 ft 370 kts 309°
2026-04-24 16:59 34.58931 52.69918 30251 ft 371 kts 310°
2026-04-24 16:59 34.62771 52.65571 29214 ft 386 kts 311°
2026-04-24 17:00 34.64741 52.63346 28660 ft 386 kts 311°
2026-04-24 17:00 34.68648 52.58937 27689 ft 381 kts 311°
2026-04-24 17:00 34.70586 52.56746 27196 ft 378 kts 311°
2026-04-24 17:01 34.74398 52.52429 26246 ft 374 kts 312°
2026-04-24 17:01 34.76298 52.50273 25768 ft 372 kts 312°
2026-04-24 17:02 34.80075 52.45983 24849 ft 369 kts 312°
2026-04-24 17:02 34.81954 52.43847 24375 ft 368 kts 313°
2026-04-24 17:02 34.83804 52.41743 23902 ft 368 kts 313°
2026-04-24 17:02 34.85679 52.39609 23419 ft 368 kts 313°
2026-04-24 17:03 34.89373 52.35314 22404 ft 363 kts 308°
2026-04-24 17:03 34.90967 52.32947 21928 ft 359 kts 303°
2026-04-24 17:03 34.92328 52.30450 21451 ft 356 kts 297°
2026-04-24 17:04 34.93569 52.27839 20977 ft 354 kts 297°
2026-04-24 17:04 34.96011 52.22634 20048 ft 352 kts 297°
2026-04-24 17:04 34.97225 52.20046 19589 ft 351 kts 297°
2026-04-24 17:05 34.98421 52.17500 19135 ft 350 kts 297°
2026-04-24 17:05 34.99637 52.14914 18671 ft 349 kts 298°
2026-04-24 17:05 35.02062 52.09762 17662 ft 349 kts 298°
2026-04-24 17:06 35.03267 52.07201 17178 ft 347 kts 298°
2026-04-24 17:06 35.05645 52.02145 16254 ft 343 kts 297°
2026-04-24 17:06 35.06832 51.99621 15809 ft 341 kts 297°
2026-04-24 17:07 35.07611 51.97961 15507 ft 339 kts 297°
2026-04-24 17:07 35.09180 51.94619 14918 ft 337 kts 297°
2026-04-24 17:07 35.11481 51.89706 14066 ft 333 kts 298°
2026-04-24 17:08 35.13774 51.84805 13115 ft 330 kts 298°
2026-04-24 17:08 35.14913 51.82372 12671 ft 328 kts 298°
2026-04-24 17:08 35.16030 51.79983 12253 ft 326 kts 298°
2026-04-24 17:09 35.18270 51.75183 11410 ft 321 kts 298°
2026-04-24 17:09 35.20462 51.70479 10594 ft 318 kts 298°
2026-04-24 17:10 35.21551 51.68138 10362 ft 311 kts 298°
2026-04-24 17:10 35.24587 51.61616 10000 ft 282 kts 297°
2026-04-24 17:11 35.27467 51.55402 8892 ft 282 kts 298°
2026-04-24 17:12 35.32195 51.45192 7196 ft 268 kts 298°